Location: Tel Aviv
(32.0670°N, 34.7670°E)
Time: 01:06:31
(UTC+02:00)

Envisat - Pass Details

Date: 30 November 2021
Orbit: 764 x 766 km, 98.2° (Epoch: 26 January)

Event Time Altitude Azimuth Distance (km) Brightness Sun altitude
Rises 03:25:26 0° 35° (NE) 3,234 6.6 -37.0°
Reaches altitude 10° 03:28:44 10° 58° (ENE) 2,303 6.0 -36.3°
Maximum altitude 03:31:39 15° 93° (E) 1,952 5.8 -35.7°
Drops below altitude 10° 03:34:34 10° 129° (SE) 2,294 6.0 -35.1°
Sets 03:37:49 0° 152° (SSE) 3,215 6.6 -34.4°
